Geely Xingzuo 04 zu 02 xing

operational
NORAD ID: 65120 Int'l Des: 2025-170 Owner: GEESP Country: CN Constellation: geesatcom
LEOCIRCULAR

About Geely Xingzuo 04 zu 02 xing

Description loading...

Live Position

Loading 3D Globe...

Upcoming Passes

Altitude History

Altitude vs Time

uPlot chart will show altitude changes over time

Two-Line Element Set

1 65120U 25170B 26062.15278853 .00002692 00000-0 35087-3 0 9999
2 65120 49.9852 305.9319 0010539 33.7637 326.3970 14.83496564 30711
Epoch: Mar 3, 2026 • Age: 29 hours

Current Status

Altitude 632.6 km
Velocity 7.54 km/s
Sub-Earth Point -41.35°S, 12.71°E
Launch Date Aug 8, 2025
Age 0.5 years
Type other

Technical Details

Classification Payload
Mass 130.00 kg
Dry Mass 130.00 kg
Total Mass 130.00 kg
Length 1.00 m
Diameter 0.50 m
Span 2.00 m
Shape Box + 2 pan
Manufacturer GWCG
Bus Type GPS100
Phase Status In Orbit
Owner/State GEESP/CN

Large Constellations

Loading constellations...